"Pseudo-MPEC" for P10OT6j

Created 2019 Jun 15 19:08:56 UT using Find_Orb

Click here for an explanation of pseudo-MPECs

 
 Astrometry: 
     P10OT6j  C2019 06 01uOZK6u@*W[DrEqN#q@JYk9've3SJ9)_?sZ_#kU8iM];rstBRf63!F52
     P10OT6j  C2019 06 01FZTKt7090DRgi-Y5ct7=ld8iqXAstrometryY*N4+.h0\ZtuD'2-F52
     P10OT6j  C2019 06 01il@$/noM;3?**Q=i%QN3?^pSXERv'd]J0$(?rwF3deqop48uefc_F52
     P10OT6j  C2019 06 01$3l\2D29bo=rME8v8ga$_0NMHJmhgRlD(2i:+cw$kCpk?.2fKj;yF52
     P10OT6j  C2019 06 098?lZ,x`v.LeH,qf*OWMEl-4Mt`=590.+D:]KYYLy\YJredacted;F51
     P10OT6j  C2019 06 09HcyclickYjx56+I=%c[nEaipDnp$Nw#d0MfME=$Z-/]K5G`]#+:eF51
     P10OT6j  C2019 06 09N0cw[AK2DiBKUIQTfUhs?KxTL^k*C+ILp2IQTN=R=_$r./LN?:!^F51
     P10OT6j  C2019 06 09?lF8]P\hereCS.9e1Ds_a*tbmj2nkpgEg^T=@wp(j69hcx)i]MNEF51
     P10OT6j KC2019 06 11A(5-PZX=t+dN^%Mforfo=%7W@pexplanation1#w_AkqL^hRXspaH21
     P10OT6j KC2019 06 11PT@W@jty'VJg%H\@GMFy*`+=4!XdUxAOhoNpo^LtK+v+gR;=Jn!1H21
     P10OT6j KC2019 06 11TrE/Pc?O^nqSwA[mvayLlfCy[`I*;4^43GdvfmZ[?g2`jmT@.-m!H21
     P10OT6j  C2019 06 11Mjc*#mEl+Y%RxVskjTdXfKH3YhBf5wm%QV/.#UbhZof6h2vv^G`)F51
     P10OT6j  C2019 06 11Z)%nD-$-p(pD+*9K@[]!WZ_M[Wp)\pG_EFC-%IgITq=lx=m0QR]gF51
     P10OT6j  C2019 06 11,:]5w-76L\6Ii-(mt+GEH'7!y*eP7=C=TYnp^h,NkP[sC/XDU'LFF51

Station data:
(F51) Pan-STARRS 1, Haleakala  (N20.707235 W156.255910)  US/Hawaii.
   Observers N. Primak, A. Schultz, S. Watters, J. Thiel, T. Goggia. Measurer
   PS1 Science Consortium. 1.8-m Ritchey-Chrétien + CCD.
(F52) Pan-STARRS 2, Haleakala  (N20.707384 W156.255910)  US/Hawaii. 1.8-m
   Ritchey-Chrétien + CCD.
(H21) Astronomical Research Observatory, Westfield  (N39.483057 W87.968270)
   US/Illinois. 0.76-m f/3.0 astrograph + CCD.

Orbital elements:  P10OT6j
   Perihelion 2024 Jan 31.456225 TT = 10:56:57 (JD 2460340.956225)
Epoch 2019 Jun 11.0 TT = JDT 2458645.5   Ju: 0.0899           AutoNEOCP
M 222.73322980                      (J2000 ecliptic)
n   0.08096155     Peri.  188.83754
a   5.29196333     Node   269.80541
e   0.0484110      Incl.   23.98335
P  12.17           H   14.2     G   0.15   q 5.03577408  Q 5.54815258
From 14 observations 2019 June 1-11; mean residual 0".15
Residuals in arcseconds: 
190601 F52  .09+  .04-    190609 F51  .10+  .03-    190611 H21  .06+  .14+    
190601 F52  .21-  .24-    190609 F51  .01-  .03-    190611 F51  .20-  .03+    
190601 F52  .02-  .13+    190609 F51  .03-  .05+    190611 F51  .06-  .18+    
190601 F52  .14+  .14+    190611 H21  .44+  .23-    190611 F51  .14-  .14-    
190609 F51  .14-  .02+    190611 H21  .07-  .01+    

Ephemerides (geocentric):
Date (UTC) HH   RA              Dec         delta   r     elong  mag
---- -- -- --  -------------   -----------  ------ ------ -----  ---
2019 06 15 19  21 24 27.178   +05 29 52.61  4.9488 5.4845 117.0 22.0
2019 06 15 20  21 24 26.801   +05 30 02.89  4.9483 5.4845 117.0 22.0
2019 06 15 21  21 24 26.422   +05 30 13.16  4.9477 5.4844 117.0 22.0
2019 06 15 22  21 24 26.042   +05 30 23.42  4.9472 5.4844 117.1 22.0
2019 06 15 23  21 24 25.661   +05 30 33.68  4.9466 5.4844 117.1 22.0
2019 06 16 00  21 24 25.279   +05 30 43.93  4.9461 5.4844 117.1 22.0
2019 06 16 01  21 24 24.896   +05 30 54.18  4.9455 5.4844 117.2 22.0
2019 06 16 02  21 24 24.512   +05 31 04.42  4.9450 5.4844 117.2 22.0
2019 06 16 03  21 24 24.126   +05 31 14.65  4.9445 5.4844 117.2 22.0
2019 06 16 04  21 24 23.740   +05 31 24.87  4.9439 5.4844 117.3 22.0
2019 06 16 05  21 24 23.352   +05 31 35.09  4.9434 5.4844 117.3 22.0
2019 06 16 06  21 24 22.963   +05 31 45.30  4.9428 5.4844 117.4 22.0
2019 06 16 07  21 24 22.573   +05 31 55.50  4.9423 5.4843 117.4 22.0
2019 06 16 08  21 24 22.181   +05 32 05.70  4.9417 5.4843 117.4 22.0
2019 06 16 09  21 24 21.789   +05 32 15.89  4.9412 5.4843 117.5 22.0
2019 06 16 10  21 24 21.396   +05 32 26.07  4.9407 5.4843 117.5 22.0
2019 06 16 11  21 24 21.001   +05 32 36.25  4.9401 5.4843 117.5 22.0
2019 06 16 12  21 24 20.605   +05 32 46.42  4.9396 5.4843 117.6 22.0
2019 06 16 13  21 24 20.208   +05 32 56.58  4.9390 5.4843 117.6 22.0
2019 06 16 14  21 24 19.810   +05 33 06.73  4.9385 5.4843 117.7 22.0
2019 06 16 15  21 24 19.411   +05 33 16.88  4.9380 5.4843 117.7 22.0
2019 06 16 16  21 24 19.010   +05 33 27.02  4.9374 5.4843 117.7 22.0
2019 06 16 17  21 24 18.609   +05 33 37.16  4.9369 5.4843 117.8 22.0
2019 06 16 18  21 24 18.206   +05 33 47.29  4.9363 5.4842 117.8 22.0
2019 06 16 19  21 24 17.802   +05 33 57.41  4.9358 5.4842 117.8 22.0
2019 06 16 20  21 24 17.397   +05 34 07.52  4.9353 5.4842 117.9 22.0
2019 06 16 21  21 24 16.991   +05 34 17.63  4.9347 5.4842 117.9 22.0
2019 06 16 22  21 24 16.584   +05 34 27.73  4.9342 5.4842 117.9 22.0
2019 06 16 23  21 24 16.176   +05 34 37.82  4.9337 5.4842 118.0 22.0
2019 06 17 00  21 24 15.766   +05 34 47.91  4.9331 5.4842 118.0 22.0
2019 06 17 01  21 24 15.355   +05 34 57.99  4.9326 5.4842 118.1 22.0
2019 06 17 02  21 24 14.943   +05 35 08.06  4.9320 5.4842 118.1 22.0
2019 06 17 03  21 24 14.530   +05 35 18.12  4.9315 5.4842 118.1 22.0
2019 06 17 04  21 24 14.116   +05 35 28.18  4.9310 5.4841 118.2 22.0
2019 06 17 05  21 24 13.701   +05 35 38.23  4.9304 5.4841 118.2 22.0
2019 06 17 06  21 24 13.285   +05 35 48.28  4.9299 5.4841 118.2 22.0
2019 06 17 07  21 24 12.867   +05 35 58.31  4.9294 5.4841 118.3 22.0
2019 06 17 08  21 24 12.448   +05 36 08.34  4.9288 5.4841 118.3 22.0
2019 06 17 09  21 24 12.029   +05 36 18.37  4.9283 5.4841 118.4 22.0
2019 06 17 10  21 24 11.608   +05 36 28.38  4.9278 5.4841 118.4 22.0
2019 06 17 11  21 24 11.185   +05 36 38.39  4.9272 5.4841 118.4 22.0
2019 06 17 12  21 24 10.762   +05 36 48.39  4.9267 5.4841 118.5 22.0
2019 06 17 13  21 24 10.338   +05 36 58.39  4.9262 5.4841 118.5 22.0
2019 06 17 14  21 24 09.912   +05 37 08.38  4.9256 5.4840 118.5 21.9
2019 06 17 15  21 24 09.485   +05 37 18.36  4.9251 5.4840 118.6 21.9
2019 06 17 16  21 24 09.058   +05 37 28.33  4.9246 5.4840 118.6 21.9
2019 06 17 17  21 24 08.629   +05 37 38.30  4.9240 5.4840 118.6 21.9
2019 06 17 18  21 24 08.199   +05 37 48.26  4.9235 5.4840 118.7 21.9